www.pogodaiklimat.ru

Погода и климат >> Архив погоды >> Ливия >> Kufra


ПОГОДА в Kufra

  • Прогноз погоды в Kufra
  • Монитор погоды в Kufra
  • Климат города

АРХИВ ПОГОДЫ в Kufra

Время (UTC), дата Ветер
(напр.,м/с)
 
Видим.   Явления Облачность Т
(С)
Тd
(С)
f
(%)
Тe
(С)
Тes
(С)
Комфортность P
(гПа)
Po
(гПа)
Тmin
(С)
Tmax
(С)
R
(мм)
R24
(мм)
S
(см)
09 8.08 ЮВ 5 20 км ясно +38.0 +1.4 10 +34 +44 очень
жарко
966.4
12 8.08 СВ 1 20 км ясно +41.6 +4.4 10 +38 +62 опасность
солнечного
удара
964.5
09 9.08 Ю 2 н/о н/о +40.8 +7.0 13 +38 +38 очень
жарко
1013.6 966.9
12 9.08 С 3 н/о н/о +43.1 +6.3 11 +40 +40 очень
жарко
1011.4 965.2
15 9.08 С 3 н/о н/о +42.3 +5.7 11 +40 +40 очень
жарко
1010.1 963.8
06 10.08 СВ 1 н/о н/о +34.7 +6.9 18 +33 +33 жарко 1013.3 965.8 +31.0
09 10.08 штиль 0 20 км ясно +39.4 +7.2 14 +37 +63 опасность
солнечного
удара
965.9
12 10.08 С 4 н/о н/о +42.7 +7.3 12 +40 +40 очень
жарко
1010.2 964.0
15 10.08 С 7 н/о н/о +43.0 +6.2 11 +40 +40 очень
жарко
1008.8 962.7
18 10.08 С 8 10 км ясно +39.7 +7.2 14 +37 +37 очень
жарко
963.9 +44.0
09 11.08 С 4 н/о н/о +38.5 +8.2 16 +36 +36 очень
жарко
1011.1 964.2
12 11.08 З 5 н/о н/о +39.9 +9.3 16 +38 +38 очень
жарко
1009.3 962.7
15 11.08 С 5 н/о н/о +39.7 +7.2 14 +37 +37 очень
жарко
1008.4 961.8
18 11.08 С 5 10 км ясно +36.3 +6.5 16 +34 +34 очень
жарко
1009.0 961.9 +40.7
21 11.08 С 6 н/о н/о +32.5 +9.3 24 +32 +32 жарко 1012.1 964.3
00 12.08 С 6 н/о н/о +30.4 +8.7 26 +30 +30 жарко 1012.2 964.1
03 12.08 С 5 н/о н/о +28.8 +9.0 29 +29 +29 жарко 1012.7 964.3
06 12.08 С 6 н/о н/о +30.1 +9.6 28 +30 +30 жарко 1013.2 965.0 +28.2
09 12.08 С 5 н/о н/о +35.4 +10.4 22 +34 +34 очень
жарко
1013.0 965.6
12 12.08 С 4 н/о н/о +39.2 +8.8 16 +37 +37 очень
жарко
1010.9 964.2
15 12.08 СЗ 4 н/о н/о +39.6 +9.1 16 +38 +38 очень
жарко
1009.7 963.1
18 12.08 СЗ 4 н/о н/о +36.3 +9.0 19 +35 +35 очень
жарко
1010.9 963.7 +40.5
21 12.08 СЗ 3 н/о н/о +33.6 +9.0 22 +32 +32 жарко 1012.2 964.6
00 13.08 СЗ 3 н/о н/о +33.6 +9.0 22 +32 +32 жарко 1012.2 964.6
09 13.08 СВ 3 н/о н/о +37.9 +11.8 21 +37 +37 очень
жарко
1012.4 965.4
12 13.08 СЗ 2 н/о н/о +41.2 +9.4 15 +39 +39 очень
жарко
1010.3 963.9
15 13.08 С 4 н/о н/о +41.3 +8.5 14 +39 +39 очень
жарко
1008.4 962.1
18 13.08 С 4 н/о н/о +37.8 +7.7 16 +36 +36 очень
жарко
1009.8 962.9 +42.3
21 13.08 С 4 н/о н/о +34.7 +9.2 21 +33 +33 жарко 1012.2 964.7
00 14.08 С 5 н/о н/о +32.2 +9.7 25 +32 +32 жарко 1012.2 964.4
09 14.08 В 5 н/о н/о +36.8 +9.4 19 +35 +35 очень
жарко
1013.6 966.4
12 14.08 СЗ 4 н/о н/о +38.6 +10.1 18 +37 +37 очень
жарко
1011.5 964.7
15 14.08 С 6 н/о н/о +38.8 +6.5 14 +36 +36 очень
жарко
1010.6 963.8
18 14.08 С 4 н/о н/о +34.7 +4.3 15 +32 +32 жарко 1012.4 964.9 +40.1
21 14.08 С 4 н/о н/о +31.1 +4.0 18 +29 +29 жарко 1013.8 965.7

 

Местоположение метеостанции Kufra (Ливия): широта 24.22 долгота 23.30 высота над уровнем моря 436 м.

В архиве по умолчанию представлена погода в Kufra за последнюю неделю. Архивные данные за месяц целиком и за предыдущие месяцы, начиная с января 2011 года, Вы можете получить, выбрав интересующий диапазон дат из раскрывающегося списка и нажав кнопку "Ввод!".


*Определитесь, кто Вы:
робот инопланетянин человек

Внимание! Время в таблицах - всемирное. Для получения местного времени необходимо прибавить поправку, которая в Kufra равна 1 ч.

Смотрите также архив погоды в соседних городах и на ближайших метеорологических станциях:

Погода в Tazirbu (Ливия) (281 км)
Погода в Jalo (Ливия) (562 км)
Погода в Farafra (Египет) (565 км)
Погода в Siwa (Египет) (589 км)
Погода в Dakhla (Египет) (592 км)
Погода в Maradah (Ливия) (704 км)
Погода в Baharia (Египет) (722 км)
Погода в Kharga (Египет) (742 км)
Погода в Faya (Чад) (814 км)
Погода в Asyut (Египет) (835 км)

Пояснения к столбцам:

Ветер - указаны скорость ветра в м/с - средняя за 10 мин, порывы в срок и между сроками (в фигурных скобках) и направление, откуда дует ветер: С - северный, СВ - северо-восточный, В - восточный, ЮВ - юго-восточный, Ю - южный, ЮЗ - юго-западный, З - западный, СЗ - северо-западный.
Видимость - горизонтальная дальность видимости в метрах или километрах. При видимости от 1 до 10 км при отсутствии осадков обычно наблюдается дымка, при ухудшении видимости до 1 км и менее - туман. В сухую погоду видимость может ухудшаться дымом, пылью или мглою.
Явления - указаны атмосферные явления, наблюдавшиеся в срок или в последний час перед сроком; фигурными скобками обозначены явления, наблюдавшиеся между сроками (за 1-3 часа до срока); квадратными скобками обозначены град или гололедные отложения с указанием их диаметра в мм.
Облачность - указаны через наклонную черту общая и нижняя облачность в баллах и высота нижней границы облаков в метрах; квадратными скобками обозначены формы облаков: Ci - перистые, Cs - перисто-слоистые, Cc - перисто-кучевые, Ac - высококучевые, As - высокослоистые, Sc - слоисто-кучевые, Ns - слоисто-дождевые, Cu - кучевые, Cb - кучево-дождевые. Подробнее классификацию облаков см. в Атласе облаков (PDF).
T - Температура воздуха - температура, измеренная на высоте 2 м над землей.
Td - Температура точки росы - температура, при понижении до которой содержащийся в воздухе водяной пар достигнет насыщения.
f - Относительная влажность воздуха - влажноcть воздуха, измеренная на высоте 2 м над землей.
Te - Эффективная температура - температура, которую ощущает одетый по сезону человек в тени. Характеристика душности погоды. При расчете учитывается влияние влажности воздуха и скорости ветра на теплоощущения человека.
Tes - Эффективная температура на солнце - температура, которую ощущает человек, с поправкой на солнечный нагрев. Характеристика знойности погоды. Зависит от высоты солнца над горизонтом, облачности и скорости ветра. Ночью, в пасмурную погоду, а также при ветре 12 м/с и более поправка равна нулю.
P - Атмосферное давление - приведенное к уровню моря атмосферное давление.
Po - Атмосферное давление - измеренное на уровне метеостанции атмосферное давление.
Tmin - Минимальная температура - минимум температуры воздуха на высоте 2 м над землей.
Tmax - Максимальная температура - максимум температуры воздуха на высоте 2 м над землей.
R - Количество осадков - Количество выпавших осадков за период времени, мм. При наведении курсора мыши на число - период времени, за который выпало указанное количество осадков.
R24 - Количество осадков - Количество выпавших осадков за 24 часа, мм.
S - Снежный покров - Высота снежного покрова, см. При наведении курсора мыши на число - состояние снежного покрова и степень покрытия местности в баллах.